Tracking 27111 objects as of 28-Mar-2023
HD Live streaming from Space Station
objects crossing your sky now

STARLINK-30062

Track STARLINK-30062 now!
10-day predictions
STARLINK-30062 is classified as:


NORAD ID: 55715
Int'l Code: 2023-026W
Perigee: 338.6 km
Apogee: 347.4 km
Inclination: 43.0 °
Period: 91.3 minutes
Semi major axis: 6714 km
RCS: Unknown
Launch date: February 27, 2023
Source: United States (US)
Launch site: AIR FORCE EASTERN TEST RANGE (AFETR)
Your satellite tracking list
Your tracking list is empty




NASA's NSSDC Master Catalog

Two Line Element Set (TLE):
1 55715U 23026W   23087.39664108  .01700172  00000-0  85503-2 0  9994
2 55715  43.0000 113.2122 0006563  92.6822 267.4799 15.78080401  5488
Source of the keplerian elements: AFSPC